2016-10-27 00:07:00 r, 15.59m,0000000051Hz,0000008996c,0000000.020s, 024.4C,00002195
2016-10-27 00:16:59 r, 15.66m,0000000047Hz,0000009598c,0000000.021s, 024.8C,00002195
2016-10-27 00:26:59 r, 15.64m,0000000049Hz,0000009450c,0000000.021s, 024.8C,00002195
2016-10-27 00:37:01 r, 15.57m,0000000053Hz,0000008768c,0000000.019s, 024.8C,00002195
2016-10-27 00:46:59 r, 15.46m,0000000058Hz,0000007954c,0000000.017s, 024.8C,00002195
2016-10-27 00:56:59 r, 15.86m,0000000040Hz,0000011496c,0000000.025s, 024.8C,00002195
2016-10-27 01:06:59 r, 15.79m,0000000042Hz,0000010860c,0000000.024s, 025.1C,00002195
2016-10-27 01:16:59 r, 15.63m,0000000050Hz,0000009291c,0000000.020s, 025.1C,00002195
2016-10-27 01:26:59 r, 15.60m,0000000051Hz,0000009038c,0000000.020s, 025.1C,00002195
2016-10-27 01:36:59 r, 16.97m,0000000015Hz,0000031947c,0000000.069s, 025.1C,00002195
2016-10-27 01:46:59 r, 17.08m,0000000013Hz,0000035569c,0000000.077s, 025.1C,00002195
2016-10-27 01:57:00 r, 18.47m,0000000004Hz,0000127633c,0000000.277s, 024.8C,00002195
2016-10-27 02:06:59 r, 18.47m,0000000004Hz,0000127703c,0000000.277s, 024.4C,00002195
2016-10-27 02:16:59 r, 18.47m,0000000004Hz,0000127730c,0000000.277s, 023.8C,00002195
2016-10-27 02:26:59 r, 18.50m,0000000004Hz,0000130320c,0000000.283s, 023.8C,00002195
2016-10-27 02:36:59 r, 17.99m,0000000005Hz,0000081596c,0000000.177s, 023.5C,00002195
2016-10-27 02:46:59 r, 16.82m,0000000017Hz,0000028004c,0000000.061s, 023.2C,00002195
2016-10-27 02:56:59 r, 17.24m,0000000011Hz,0000041140c,0000000.089s, 023.2C,00002195
2016-10-27 03:06:59 r, 16.62m,0000000019Hz,0000023206c,0000000.050s, 023.2C,00002195
2016-10-27 03:16:59 r, 16.09m,0000000032Hz,0000014239c,0000000.031s, 023.2C,00002195
2016-10-27 03:26:59 r, 16.41m,0000000024Hz,0000019197c,0000000.042s, 023.2C,00002195
2016-10-27 03:36:59 r, 16.13m,0000000031Hz,0000014700c,0000000.032s, 023.2C,00002195
2016-10-27 03:46:59 r, 16.16m,0000000031Hz,0000015162c,0000000.033s, 023.5C,00002195
2016-10-27 03:56:59 r, 16.78m,0000000017Hz,0000026867c,0000000.058s, 023.5C,00002195
2016-10-27 04:06:59 r, 16.74m,0000000018Hz,0000025901c,0000000.056s, 023.5C,00002195
2016-10-27 04:16:59 r, 16.43m,0000000024Hz,0000019577c,0000000.042s, 023.5C,00002195
2016-10-27 04:27:00 r, 16.73m,0000000018Hz,0000025555c,0000000.055s, 023.5C,00002195
2016-10-27 04:37:00 r, 16.64m,0000000019Hz,0000023553c,0000000.051s, 023.2C,00002195
2016-10-27 04:46:59 r, 16.06m,0000000033Hz,0000013801c,0000000.030s, 023.2C,00002195
2016-10-27 04:56:59 r, 17.24m,0000000011Hz,0000041035c,0000000.089s, 023.2C,00002195
2016-10-27 05:06:59 r, 16.66m,0000000019Hz,0000023961c,0000000.052s, 023.2C,00002195
2016-10-27 05:16:59 r, 16.93m,0000000015Hz,0000030944c,0000000.067s, 023.2C,00002195
2016-10-27 05:26:59 r, 17.23m,0000000011Hz,0000040499c,0000000.088s, 023.2C,00002195
2016-10-27 05:37:00 r, 16.86m,0000000016Hz,0000029002c,0000000.063s, 022.8C,00002195
2016-10-27 05:46:59 r, 17.02m,0000000014Hz,0000033543c,0000000.073s, 022.8C,00002195
2016-10-27 05:57:00 r, 17.61m,0000000008Hz,0000057389c,0000000.125s, 022.8C,00002195
2016-10-27 06:07:00 r, 17.59m,0000000008Hz,0000056653c,0000000.123s, 022.8C,00002195
2016-10-27 06:17:00 r, 16.81m,0000000017Hz,0000027582c,0000000.060s, 022.5C,00002195
2016-10-27 06:27:00 r, 16.93m,0000000015Hz,0000030743c,0000000.067s, 022.5C,00002195
2016-10-27 06:37:00 r, 17.29m,0000000010Hz,0000043189c,0000000.094s, 022.5C,00002195
2016-10-27 06:47:00 r, 18.25m,0000000004Hz,0000102753c,0000000.223s, 022.5C,00002195
2016-10-27 06:57:00 r, 18.09m,0000000005Hz,0000088939c,0000000.193s, 022.2C,00002195
2016-10-27 07:07:00 r, 17.81m,0000000007Hz,0000068973c,0000000.150s, 022.2C,00002195
2016-10-27 07:17:00 r, 16.81m,0000000017Hz,0000027608c,0000000.060s, 021.9C,00002195
2016-10-27 07:27:00 r, 15.24m,0000000070Hz,0000006516c,0000000.014s, 021.5C,00002195
2016-10-27 07:37:00 r, 13.35m,0000000406Hz,0000000000c,0000000.000s, 021.5C,00002195
2016-10-27 07:47:00 r, 11.19m,0000002969Hz,0000000000c,0000000.000s, 021.2C,00002195
2016-10-27 07:57:00 r, 09.25m,0000017849Hz,0000000000c,0000000.000s, 021.2C,00002195
2016-10-27 08:07:00 r, 07.81m,0000067330Hz,0000000000c,0000000.000s, 020.9C,00002195
2016-10-27 08:17:00 r, 07.01m,0000140965Hz,0000000000c,0000000.000s, 020.9C,00002195
2016-10-27 08:27:00 r, 06.47m,0000229957Hz,0000000000c,0000000.000s, 020.9C,00002195
2016-10-27 08:37:00 r, 06.00m,0000353356Hz,0000000000c,0000000.000s, 020.9C,00002195
2016-10-27 08:47:00 r, 00.00m,0000498538Hz,0000000000c,0000000.000s, 020.9C,00002195
2016-10-27 08:57:00 r, 00.00m,0000563588Hz,0000000000c,0000000.000s, 021.2C,00002195
2016-10-27 09:07:00 r, 00.00m,0000563577Hz,0000000000c,0000000.000s, 021.2C,00002195
2016-10-27 09:17:01 r, 00.00m,0000563676Hz,0000000000c,0000000.000s, 021.5C,00002195
2016-10-27 09:27:00 r, 00.00m,0000563697Hz,0000000000c,0000000.000s, 021.9C,00002195
2016-10-27 09:37:00 r, 00.00m,0000563736Hz,0000000000c,0000000.000s, 022.5C,00002195
2016-10-27 09:47:00 r, 00.00m,0000563891Hz,0000000000c,0000000.000s, 023.2C,00002195
2016-10-27 09:57:00 r, 00.00m,0000563985Hz,0000000000c,0000000.000s, 023.8C,00002195
2016-10-27 10:07:00 r, 00.00m,0000564129Hz,0000000000c,0000000.000s, 024.8C,00002195
2016-10-27 10:17:02 r, 00.00m,0000564104Hz,0000000000c,0000000.000s, 025.7C,00002195
2016-10-27 10:27:00 r, 00.00m,0000564237Hz,0000000000c,0000000.000s, 026.4C,00002195
2016-10-27 10:37:00 r, 00.00m,0000564303Hz,0000000000c,0000000.000s, 027.3C,00002195
2016-10-27 10:47:00 r, 00.00m,0000564452Hz,0000000000c,0000000.000s, 028.0C,00002195
2016-10-27 10:57:00 r, 00.00m,0000564425Hz,0000000000c,0000000.000s, 028.6C,00002195
2016-10-27 11:07:00 r, 00.00m,0000564558Hz,0000000000c,0000000.000s, 029.0C,00002195
2016-10-27 11:17:00 r, 00.00m,0000564626Hz,0000000000c,0000000.000s, 029.6C,00002195
2016-10-27 11:27:00 r, 00.00m,0000564625Hz,0000000000c,0000000.000s, 029.9C,00002195
2016-10-27 11:37:00 r, 00.00m,0000564642Hz,0000000000c,0000000.000s, 029.9C,00002195
2016-10-27 11:47:00 r, 00.00m,0000564651Hz,0000000000c,0000000.000s, 029.6C,00002195
2016-10-27 11:57:00 r, 00.00m,0000564592Hz,0000000000c,0000000.000s, 029.9C,00002195
2016-10-27 12:07:00 r, 00.00m,0000564645Hz,0000000000c,0000000.000s, 029.9C,00002195
2016-10-27 12:17:00 r, 00.00m,0000564655Hz,0000000000c,0000000.000s, 030.2C,00002195
2016-10-27 12:27:00 r, 00.00m,0000564775Hz,0000000000c,0000000.000s, 030.9C,00002195
2016-10-27 12:37:00 r, 00.00m,0000564707Hz,0000000000c,0000000.000s, 030.9C,00002195
2016-10-27 12:47:00 r, 00.00m,0000564789Hz,0000000000c,0000000.000s, 030.9C,00002195
2016-10-27 12:57:00 r, 00.00m,0000564786Hz,0000000000c,0000000.000s, 031.2C,00002195
2016-10-27 13:07:00 r, 00.00m,0000564855Hz,0000000000c,0000000.000s, 031.9C,00002195
2016-10-27 13:17:00 r, 00.00m,0000564953Hz,0000000000c,0000000.000s, 032.5C,00002195
2016-10-27 13:27:00 r, 00.00m,0000564879Hz,0000000000c,0000000.000s, 032.5C,00002195
2016-10-27 13:37:00 r, 00.00m,0000564815Hz,0000000000c,0000000.000s, 032.2C,00002195
2016-10-27 13:47:00 r, 00.00m,0000564869Hz,0000000000c,0000000.000s, 032.2C,00002195
2016-10-27 13:57:00 r, 00.00m,0000564818Hz,0000000000c,0000000.000s, 032.2C,00002195
2016-10-27 14:07:00 r, 00.00m,0000564856Hz,0000000000c,0000000.000s, 031.9C,00002195
2016-10-27 14:17:00 r, 00.00m,0000564802Hz,0000000000c,0000000.000s, 031.5C,00002195
2016-10-27 14:27:00 r, 00.00m,0000564790Hz,0000000000c,0000000.000s, 031.5C,00002195
2016-10-27 14:37:00 r, 00.00m,0000564786Hz,0000000000c,0000000.000s, 031.5C,00002195
2016-10-27 14:47:00 r, 00.00m,0000564693Hz,0000000000c,0000000.000s, 031.2C,00002195
2016-10-27 14:57:00 r, 00.00m,0000564690Hz,0000000000c,0000000.000s, 030.9C,00002195
2016-10-27 15:07:00 r, 00.00m,0000564766Hz,0000000000c,0000000.000s, 030.6C,00002195
2016-10-27 15:17:00 r, 00.00m,0000564636Hz,0000000000c,0000000.000s, 030.2C,00002195
2016-10-27 15:27:01 r, 00.00m,0000564613Hz,0000000000c,0000000.000s, 029.9C,00002195
2016-10-27 15:37:00 r, 00.00m,0000564620Hz,0000000000c,0000000.000s, 029.6C,00002195
2016-10-27 15:47:00 r, 00.00m,0000564464Hz,0000000000c,0000000.000s, 029.0C,00002195
2016-10-27 15:57:00 r, 00.00m,0000564471Hz,0000000000c,0000000.000s, 029.0C,00002195
2016-10-27 16:07:00 r, 00.00m,0000564475Hz,0000000000c,0000000.000s, 028.6C,00002195
2016-10-27 16:17:00 r, 00.00m,0000564392Hz,0000000000c,0000000.000s, 028.3C,00002195
2016-10-27 16:27:00 r, 00.00m,0000564411Hz,0000000000c,0000000.000s, 028.3C,00002195
2016-10-27 16:37:00 r, 00.00m,0000564397Hz,0000000000c,0000000.000s, 028.0C,00002195
2016-10-27 16:47:00 r, 00.00m,0000564337Hz,0000000000c,0000000.000s, 028.0C,00002195
2016-10-27 16:57:00 r, 00.00m,0000564274Hz,0000000000c,0000000.000s, 028.0C,00002195
2016-10-27 17:07:00 r, 00.00m,0000564289Hz,0000000000c,0000000.000s, 027.7C,00002195
2016-10-27 17:17:01 r, 00.00m,0000564319Hz,0000000000c,0000000.000s, 027.3C,00002195
2016-10-27 17:27:00 r, 00.00m,0000564210Hz,0000000000c,0000000.000s, 027.0C,00002195
2016-10-27 17:37:00 r, 00.00m,0000535092Hz,0000000000c,0000000.000s, 026.7C,00002195
2016-10-27 17:47:00 r, 06.04m,0000341665Hz,0000000000c,0000000.000s, 026.7C,00002195
2016-10-27 17:57:00 r, 06.75m,0000178082Hz,0000000000c,0000000.000s, 026.1C,00002195
2016-10-27 18:07:00 r, 07.39m,0000098373Hz,0000000000c,0000000.000s, 026.1C,00002195
2016-10-27 18:17:00 r, 08.28m,0000043672Hz,0000000000c,0000000.000s, 025.7C,00002195
2016-10-27 18:27:00 r, 09.79m,0000010796Hz,0000000000c,0000000.000s, 025.4C,00002195
2016-10-27 18:37:01 r, 11.71m,0000001842Hz,0000000000c,0000000.000s, 025.4C,00002195
2016-10-27 18:47:00 r, 13.60m,0000000324Hz,0000000000c,0000000.000s, 025.4C,00002195
2016-10-27 18:57:00 r, 15.42m,0000000060Hz,0000007700c,0000000.017s, 025.4C,00002195
2016-10-27 19:07:00 r, 16.39m,0000000024Hz,0000018837c,0000000.041s, 025.4C,00002195
2016-10-27 19:17:00 r, 16.42m,0000000024Hz,0000019265c,0000000.042s, 025.1C,00002195
2016-10-27 19:27:00 r, 15.97m,0000000035Hz,0000012783c,0000000.028s, 025.1C,00002195
2016-10-27 19:37:00 r, 15.71m,0000000046Hz,0000010101c,0000000.022s, 025.4C,00002195
2016-10-27 19:47:00 r, 15.91m,0000000039Hz,0000011976c,0000000.026s, 025.4C,00002195
2016-10-27 19:57:00 r, 16.06m,0000000033Hz,0000013828c,0000000.030s, 025.4C,00002195
2016-10-27 20:07:00 r, 15.94m,0000000037Hz,0000012468c,0000000.027s, 025.4C,00002195
2016-10-27 20:17:00 r, 15.53m,0000000054Hz,0000008508c,0000000.018s, 025.4C,00002195
2016-10-27 20:27:00 r, 15.49m,0000000056Hz,0000008152c,0000000.018s, 025.1C,00002195
2016-10-27 20:37:00 r, 15.68m,0000000047Hz,0000009762c,0000000.021s, 025.1C,00002195
2016-10-27 20:47:00 r, 15.88m,0000000040Hz,0000011660c,0000000.025s, 025.1C,00002195
2016-10-27 20:57:00 r, 15.77m,0000000044Hz,0000010611c,0000000.023s, 025.4C,00002195
2016-10-27 21:07:00 r, 15.75m,0000000044Hz,0000010404c,0000000.023s, 025.1C,00002195
2016-10-27 21:17:00 r, 15.92m,0000000038Hz,0000012107c,0000000.026s, 025.1C,00002195
2016-10-27 21:27:00 r, 16.09m,0000000032Hz,0000014177c,0000000.031s, 025.1C,00002195
2016-10-27 21:37:00 r, 16.07m,0000000033Hz,0000013890c,0000000.030s, 025.1C,00002195
2016-10-27 21:47:00 r, 16.29m,0000000026Hz,0000017178c,0000000.037s, 025.1C,00002195
2016-10-27 21:57:00 r, 16.89m,0000000015Hz,0000029665c,0000000.064s, 025.1C,00002195
2016-10-27 22:07:00 r, 15.22m,0000000072Hz,0000006359c,0000000.014s, 025.1C,00002195
2016-10-27 22:17:00 r, 15.10m,0000000081Hz,0000005682c,0000000.012s, 025.1C,00002195
2016-10-27 22:27:00 r, 15.62m,0000000050Hz,0000009232c,0000000.020s, 025.1C,00002195
2016-10-27 22:37:00 r, 15.54m,0000000053Hz,0000008636c,0000000.019s, 025.4C,00002195
2016-10-27 22:47:00 r, 15.57m,0000000052Hz,0000008875c,0000000.019s, 025.4C,00002195
2016-10-27 22:57:00 r, 15.73m,0000000045Hz,0000010195c,0000000.022s, 025.4C,00002195
2016-10-27 23:07:00 r, 15.32m,0000000068Hz,0000006991c,0000000.015s, 025.7C,00002195
2016-10-27 23:17:00 r, 15.46m,0000000058Hz,0000007955c,0000000.017s, 025.7C,00002195
2016-10-27 23:27:00 r, 15.46m,0000000059Hz,0000007978c,0000000.017s, 025.7C,00002195
2016-10-27 23:37:00 r, 15.17m,0000000076Hz,0000006076c,0000000.013s, 025.7C,00002195
2016-10-27 23:47:00 r, 15.28m,0000000068Hz,0000006748c,0000000.015s, 025.7C,00002195
2016-10-27 23:57:00 r, 15.19m,0000000073Hz,0000006227c,0000000.014s, 025.7C,00002195
